Location: Ellingshausen
(50.5460°N, 10.4723°E)
Time: 21:10:21
(UTC+00:00)

Cosmos 2082 Rocket - Pass Details

Date: 18 January 2026
Orbit: 831 x 853 km, 71.0° (Epoch: 16 February)

Event Time Altitude Azimuth Distance (km) Brightness Sun altitude
Exits shadow 05:53:52 14° 307° (NW) 2,194 3.8 -11.8°
Maximum altitude 05:57:43 29° 256° (WSW) 1,525 3.1 -11.2°
Drops below altitude 10° 06:02:29 10° 198° (SSW) 2,471 4.7 -10.5°
Sets 06:05:13 0° 188° (S) 3,404 5.5 -10.1°
